Location: L�gaud
(45.7115°N, 1.7775°E)
Time: 14:49:27
(UTC+00:00)

BREEZE-M DEB (TANK) - Pass Details

Date: 03 March 2021
Orbit: 308 x 15404 km, 49.5° (Epoch: 10 April)

Event Time Altitude Azimuth Distance (km) Brightness Sun altitude
Rises 19:42:47 0° 287° (WNW) 2,113 6.9 -21.7°
Reaches altitude 10° 19:44:10 10° 294° (WNW) 1,435 5.6 -21.9°
Maximum altitude 19:46:50 53° 14° (NNE) 730 2.8 -22.3°
Enters shadow 19:47:19 49° 42° (NE) 822 2.9 -22.4°
